FW5174 Weather Reports


time (UTC)temp
C
wind
direction
speed
KPH
gust
KPH
rain 1hr
cm
rain 24hr
cm
rain mn
cm
humidity
%
barometer
mb
20260906044034 21 1 0.0 0.0 0.00 0.18 0.00 74 1012.1
20260906043533 21 1 0.0 0.0 0.00 0.18 0.00 74 1012.0
20260906043029 21 1 0.0 1.6 0.00 0.18 0.00 74 1011.9
20260906042527 21 1 0.0 1.6 0.00 0.18 0.00 73 1011.9
20260906042026 21 1 0.0 1.6 0.00 0.18 0.00 72 1011.9
20260906041525 21 336 0.0 1.6 0.00 0.18 0.00 71 1011.9
20260906041025 21 336 0.0 1.6 0.00 0.18 0.18 71 1011.9
20260906040524 21 15 0.0 0.0 0.00 0.18 0.18 71 1012.1
20260906035519 21 15 0.0 0.0 0.00 0.18 0.18 71 1012.1
20260906035019 21 15 0.0 0.0 0.00 0.18 0.18 71 1012.2
20260906034518 21 15 0.0 1.6 0.00 0.18 0.18 71 1012.4
20260906034019 21 102 0.0 1.6 0.00 0.18 0.18 71 1012.4
20260906033516 21 100 0.0 1.6 0.00 0.18 0.18 71 1012.4
20260906033017 21 91 0.0 1.6 0.00 0.18 0.18 71 1012.5
20260906032515 21 91 0.0 1.6 0.00 0.18 0.18 71 1012.7
20260906032017 21 93 0.0 0.0 0.00 0.18 0.18 72 1012.6
20260906031514 21 345 0.0 0.0 0.00 0.18 0.18 71 1012.5
20260906031018 21 340 0.0 0.0 0.00 0.18 0.18 71 1012.6
20260906030513 21 340 0.0 0.0 0.00 0.18 0.18 71 1012.6
20260906025513 21 340 0.0 0.0 0.00 0.18 0.18 72 1012.4
20260906025012 21 27 0.0 0.0 0.00 0.18 0.18 71 1012.4
20260906024512 21 328 0.0 0.0 0.00 0.18 0.18 70 1012.3
20260906024011 21 328 0.0 0.0 0.00 0.18 0.18 70 1012.2
20260906023510 21 328 0.0 1.6 0.00 0.18 0.18 69 1012.1
20260906023010 21 314 0.0 1.6 0.00 0.18 0.18 69 1012.1
20260906022509 22 335 0.0 3.2 0.00 0.18 0.18 68 1012.1
20260906022009 22 348 0.0 3.2 0.00 0.18 0.18 67 1012.1
20260906021517 22 14 0.0 1.6 0.00 0.18 0.18 66 1012.0
20260906021007 22 1 0.0 1.6 0.00 0.18 0.18 66 1012.1
20260906020506 22 352 0.0 1.6 0.00 0.18 0.18 65 1012.1
20260906015509 22 111 0.0 1.6 0.00 0.18 0.18 65 1012.0
20260906015009 22 111 0.0 1.6 0.00 0.18 0.18 65 1012.0
20260906014514 22 96 0.0 1.6 0.00 0.18 0.18 65 1011.9
20260906014008 22 96 0.0 3.2 0.00 0.18 0.18 65 1011.8
20260906013507 23 343 0.0 0.0 0.00 0.18 0.18 65 1011.8
20260906013015 22 342 0.0 1.6 0.00 0.18 0.18 66 1011.9
20260906012505 22 342 0.0 1.6 0.00 0.18 0.18 66 1011.7
20260906012005 23 75 0.0 0.0 0.00 0.18 0.18 66 1011.5
20260906011505 23 314 0.0 1.6 0.00 0.18 0.18 66 1011.5
20260906011004 23 43 0.0 1.6 0.00 0.18 0.18 68 1011.6
20260906010508 23 34 0.0 1.6 0.00 0.18 0.18 68 1011.4
20260906005600 23 95 0.0 0.0 0.00 0.18 0.18 68 1011.3
20260906005102 23 95 0.0 0.0 0.00 0.18 0.18 68 1011.4
20260906004559 23 95 0.0 3.2 0.00 0.18 0.18 68 1011.3
20260906004100 24 93 0.0 3.2 0.00 0.18 0.18 67 1011.2
20260906003558 25 105 0.0 1.6 0.00 0.18 0.18 66 1011.0
20260906003058 24 332 0.0 1.6 0.00 0.18 0.18 67 1011.0
20260906002557 24 332 0.0 1.6 0.00 0.18 0.18 68 1011.0
20260906002057 25 56 0.0 1.6 0.00 0.18 0.18 67 1011.0
20260906001555 25 110 0.0 1.6 0.00 0.18 0.18 65 1010.9
20260906001155 25 112 0.0 1.6 0.00 0.18 0.18 65 1010.8
20260906000555 26 41 0.0 0.0 0.00 0.18 0.18 64 1010.8
20260905235556 26 40 0.0 1.6 0.00 0.18 0.18 63 1010.8
20260905235055 26 21 0.0 1.6 0.00 0.18 0.18 63 1010.7
20260905234556 26 11 0.0 1.6 0.00 0.18 0.18 64 1010.7
20260905234054 27 15 0.0 3.2 0.00 0.18 0.18 62 1010.6
20260905233558 27 35 0.0 3.2 0.00 0.18 0.18 62 1010.5
20260905233057 27 70 0.0 1.6 0.00 0.18 0.18 60 1010.7
20260905232553 28 103 0.0 1.6 0.00 0.18 0.18 60 1010.6
20260905232053 27 98 0.0 1.6 0.00 0.18 0.18 61 1010.6
20260905231552 27 89 0.0 1.6 0.00 0.18 0.18 60 1010.6
20260905231055 27 81 0.0 1.6 0.00 0.18 0.18 61 1010.5
20260905230551 29 94 0.0 1.6 0.00 0.18 0.18 57 1010.4
20260905225649 30 109 0.0 3.2 0.00 0.18 0.18 54 1010.1
20260905225054 31 110 0.0 1.6 0.00 0.18 0.18 52 1010.1
20260905224549 30 111 0.0 3.2 0.00 0.18 0.18 53 1010.0
20260905224049 30 65 0.0 3.2 0.00 0.18 0.18 52 1010.0
20260905223547 31 100 1.6 3.2 0.00 0.18 0.18 51 1010.0
20260905223048 31 99 0.0 3.2 0.00 0.18 0.18 50 1010.0
20260905222546 33 111 0.0 3.2 0.00 0.18 0.18 46 1010.3
20260905222044 33 63 0.0 1.6 0.00 0.18 0.18 45 1010.2
20260905221545 33 39 0.0 1.6 0.00 0.18 0.18 44 1010.2
20260905221044 33 103 0.0 1.6 0.00 0.18 0.18 44 1010.4
20260905220543 33 238 0.0 1.6 0.00 0.18 0.18 46 1010.1
20260905215541 32 258 0.0 3.2 0.00 0.18 0.18 45 1010.3
20260905215040 32 49 0.0 3.2 0.00 0.18 0.18 48 1010.5
20260905214539 31 252 0.0 3.2 0.00 0.18 0.18 48 1010.5
20260905214039 31 26 1.6 3.2 0.00 0.18 0.18 49 1010.3
20260905213538 31 253 0.0 3.2 0.00 0.18 0.18 48 1010.4
20260905213037 31 351 1.6 6.4 0.00 0.18 0.18 49 1010.5
20260905212539 30 51 1.6 6.4 0.00 0.18 0.18 50 1010.5
20260905212036 31 353 0.0 0.0 0.00 0.18 0.18 50 1010.7
20260905211538 30 42 0.0 0.0 0.00 0.18 0.18 51 1010.8
20260905211034 31 37 0.0 0.0 0.00 0.18 0.18 48 1010.7
20260905210534 30 340 0.0 1.6 0.00 0.18 0.18 51 1010.7
20260905205537 28 59 3.2 6.4 0.00 0.18 0.18 54 1010.8
20260905205036 28 53 0.0 4.8 0.00 0.18 0.18 56 1010.9
20260905204536 27 335 0.0 4.8 0.00 0.18 0.18 58 1011.0
20260905204035 27 304 1.6 4.8 0.00 0.18 0.18 58 1011.0
20260905203536 26 35 0.0 3.2 0.00 0.18 0.18 59 1011.2
20260905203034 26 330 0.0 3.2 0.00 0.18 0.18 60 1011.2
20260905202636 26 235 0.0 4.8 0.00 0.18 0.18 61 1011.3
20260905202034 26 21 0.0 1.6 0.00 0.18 0.18 61 1011.4
20260905201532 26 352 0.0 3.2 0.00 0.18 0.18 60 1011.4
20260905201031 26 317 0.0 3.2 0.00 0.18 0.18 62 1011.5
20260905200534 25 62 1.6 4.8 0.00 0.18 0.18 62 1011.8
20260905195525 25 6 0.0 1.6 0.00 0.18 0.18 62 1011.5
20260905195026 25 62 0.0 0.0 0.00 0.18 0.18 62 1011.5
20260905194526 25 2 0.0 0.0 0.00 0.18 0.18 62 1011.7
20260905194025 25 79 0.0 3.2 0.00 0.18 0.18 61 1011.8
20260905193531 25 110 0.0 6.4 0.00 0.18 0.18 62 1011.7
20260905193026 25 86 1.6 3.2 0.00 0.18 0.18 62 1011.7
20260905192526 25 105 0.0 1.6 0.00 0.18 0.18 61 1011.8
20260905192022 25 101 0.0 1.6 0.00 0.18 0.18 62 1011.9
20260905191530 25 223 0.0 1.6 0.00 0.18 0.18 61 1011.8
20260905191025 25 134 0.0 6.4 0.00 0.18 0.18 62 1011.7
20260905190520 23 264 1.6 9.7 0.18 0.18 0.18 62 1011.8
20260905185524 24 247 0.0 3.2 0.18 0.18 0.18 63 1011.9
20260905185024 23 95 0.0 6.4 0.18 0.18 0.18 65 1011.7
20260905184531 23 255 3.2 6.4 0.18 0.18 0.18 67 1011.8
20260905184023 23 74 3.2 6.4 0.18 0.18 0.18 67 1011.8
20260905183525 24 25 0.0 3.2 0.18 0.18 0.18 66 1011.6
20260905183022 24 58 0.0 6.4 0.18 0.18 0.18 64 1011.8
20260905182524 25 335 1.6 6.4 0.18 0.18 0.18 63 1011.9
20260905182021 24 46 0.0 4.8 0.18 0.18 0.18 64 1011.7
20260905181520 24 233 0.0 8.0 0.18 0.18 0.18 62 1011.2
20260905181019 25 143 3.2 12.9 0.18 0.18 0.18 61 1010.7
20260905180516 25 91 3.2 25.7 0.15 0.15 0.15 57 1011.1
20260905175513 29 3 6.4 62.8 0.00 0.00 0.00 43 1012.3
20260905175014 31 69 19.3 62.8 0.00 0.00 0.00 38 1013.2
20260905174510 34 92 6.4 24.1 0.00 0.00 0.00 38 1012.5
20260905174010 35 184 9.7 24.1 0.00 0.00 0.00 36 1012.2
20260905173509 36 97 3.2 11.3 0.00 0.00 0.00 36 1011.8
20260905173007 35 116 0.0 11.3 0.00 0.00 0.00 38 1011.8
20260905172505 35 89 1.6 9.7 0.00 0.00 0.00 38 1012.0
20260905172004 35 121 3.2 16.1 0.00 0.00 0.00 37 1012.0
20260905171503 35 147 6.4 16.1 0.00 0.00 0.00 37 1012.2
20260905171004 35 112 3.2 8.0 0.00 0.00 0.00 37 1012.2
20260905170502 35 259 1.6 12.9 0.00 0.00 0.00 39 1012.1
20260905165502 34 101 4.8 12.9 0.00 0.00 0.00 38 1012.1
20260905165000 35 108 1.6 11.3 0.00 0.00 0.00 38 1012.1
20260905164601 34 91 0.0 11.3 0.00 0.00 0.00 36 1012.1
20260905164059 34 147 3.2 14.5 0.00 0.00 0.00 38 1012.2
20260905163602 33 58 1.6 14.5 0.00 0.00 0.00 38 1012.3
20260905163058 33 126 4.8 12.9 0.00 0.00 0.00 40 1012.3
20260905162558 32 103 4.8 17.7 0.00 0.00 0.00 42 1012.3
20260905162058 33 65 4.8 17.7 0.00 0.00 0.00 41 1012.5
20260905161556 34 80 4.8 11.3 0.00 0.00 0.00 39 1012.6
20260905161157 35 85 3.2 6.4 0.00 0.00 0.00 39 1012.7
20260905160554 35 40 1.6 4.8 0.00 0.00 0.00 40 1012.6
20260905160152 34 248 0.0 4.8 0.00 0.00 0.00 41 1012.7
20260905155557 34 356 0.0 4.8 0.00 0.00 0.00 41 1012.8
20260905155053 33 328 1.6 4.8 0.00 0.00 0.00 42 1012.7
20260905154550 33 259 0.0 4.8 0.00 0.00 0.00 46 1012.8
20260905154050 32 198 1.6 4.8 0.00 0.00 0.00 45 1012.8
20260905153546 32 12 1.6 4.8 0.00 0.00 0.00 48 1012.7
20260905153100 32 328 1.6 4.8 0.00 0.00 0.00 46 1012.7
20260905152545 32 32 1.6 4.8 0.00 0.00 0.00 49 1012.6
20260905152044 32 300 1.6 4.8 0.00 0.00 0.00 49 1012.6
20260905151543 32 23 0.0 3.2 0.00 0.00 0.00 51 1012.5
20260905151041 31 86 0.0 4.8 0.00 0.00 0.00 50 1012.6
20260905150539 31 324 1.6 3.2 0.00 0.00 0.00 51 1012.4
20260905150138 30 322 0.0 3.2 0.00 0.00 0.00 54 1012.5
20260905145533 30 336 0.0 4.8 0.00 0.00 0.00 54 1012.5
20260905145033 30 18 1.6 4.8 0.00 0.00 0.00 53 1012.7
20260905144530 30 79 0.0 4.8 0.00 0.00 0.00 56 1012.6
20260905144028 29 10 0.0 4.8 0.00 0.00 0.00 57 1012.7
20260905143528 29 6 0.0 4.8 0.00 0.00 0.00 57 1012.7
20260905143028 29 348 0.0 4.8 0.00 0.00 0.00 57 1012.7
20260905142524 28 4 0.0 1.6 0.00 0.00 0.00 59 1012.7
20260905142021 28 32 0.0 0.0 0.00 0.00 0.00 60 1012.9
20260905141521 28 330 0.0 3.2 0.00 0.00 0.00 60 1012.9
20260905141019 27 8 0.0 3.2 0.00 0.00 0.00 61 1012.9
20260905140518 27 356 0.0 3.2 0.00 0.00 0.00 61 1012.9
20260905140118 27 355 0.0 4.8 0.00 0.00 0.00 64 1012.7
20260905135518 27 355 0.0 4.8 0.00 0.00 0.00 65 1012.7
20260905135015 26 255 0.0 4.8 0.00 0.00 0.00 65 1012.9
20260905134513 26 218 0.0 1.6 0.00 0.00 0.00 67 1012.9
20260905134013 25 17 0.0 4.8 0.00 0.00 0.00 69 1012.9
20260905133512 25 27 0.0 4.8 0.00 0.00 0.00 70 1012.9
20260905133008 25 326 0.0 3.2 0.00 0.00 0.00 70 1013.1
20260905132506 25 340 0.0 3.2 0.00 0.00 0.00 71 1013.2
20260905132007 24 29 0.0 3.2 0.00 0.00 0.00 72 1013.2
20260905131503 23 11 0.0 3.2 0.00 0.00 0.00 73 1013.3
20260905131001 23 327 0.0 3.2 0.00 0.00 0.00 73 1013.4
20260905130601 23 342 0.0 1.6 0.00 0.00 0.00 73 1013.5
20260905130058 22 344 0.0 1.6 0.00 0.00 0.00 75 1013.8
20260905125559 22 344 0.0 1.6 0.00 0.00 0.00 75 1013.9
20260905125100 22 48 0.0 1.6 0.00 0.00 0.00 76 1013.6
20260905124559 22 272 0.0 3.2 0.00 0.00 0.00 77 1013.7
20260905124058 22 257 0.0 3.2 0.00 0.00 0.00 78 1013.7
20260905123558 21 15 0.0 0.0 0.00 0.00 0.00 78 1013.5
20260905123059 21 75 0.0 1.6 0.00 0.00 0.00 78 1013.4
20260905122556 21 299 0.0 1.6 0.00 0.00 0.00 78 1013.5
20260905122056 21 318 0.0 1.6 0.00 0.00 0.00 78 1013.4
20260905121555 21 262 0.0 1.6 0.00 0.00 0.00 78 1013.5
20260905121054 21 249 0.0 1.6 0.00 0.00 0.00 78 1013.6
20260905120554 20 290 0.0 0.0 0.00 0.00 0.00 78 1013.4
20260905120052 20 330 0.0 0.0 0.00 0.00 0.00 79 1013.5
20260905115550 20 330 0.0 0.0 0.00 0.00 0.00 78 1013.5
20260905115050 20 206 0.0 0.0 0.00 0.00 0.00 78 1013.5
20260905114551 20 206 0.0 0.0 0.00 0.00 0.00 78 1013.4
20260905114049 20 206 0.0 0.0 0.00 0.00 0.00 78 1013.4
20260905113548 20 339 0.0 0.0 0.00 0.00 0.00 78 1013.2
20260905113047 20 339 0.0 0.0 0.00 0.00 0.00 78 1013.1
20260905112546 20 339 0.0 0.0 0.00 0.00 0.00 78 1012.9
20260905112045 20 339 0.0 0.0 0.00 0.00 0.00 78 1012.8
20260905111545 20 343 0.0 0.0 0.00 0.00 0.00 78 1012.8
20260905111046 20 345 0.0 0.0 0.00 0.00 0.00 78 1012.7
20260905110544 20 354 0.0 1.6 0.00 0.00 0.00 78 1012.7
20260905110042 20 356 0.0 0.0 0.00 0.00 0.00 78 1012.4
20260905105543 20 356 0.0 0.0 0.00 0.00 0.00 78 1012.4
20260905105042 20 337 0.0 0.0 0.00 0.00 0.00 78 1012.3
20260905104552 20 337 0.0 0.0 0.00 0.00 0.00 78 1012.3
20260905104041 20 18 0.0 0.0 0.00 0.00 0.00 78 1012.3
20260905103545 20 21 0.0 0.0 0.00 0.00 0.00 78 1012.2
20260905103040 20 21 0.0 0.0 0.00 0.00 0.00 78 1012.2
20260905102539 20 21 0.0 3.2 0.00 0.00 0.00 78 1012.2
20260905102038 20 21 0.0 3.2 0.00 0.00 0.00 78 1012.1
20260905101539 20 345 0.0 0.0 0.00 0.00 0.00 78 1012.1
20260905101037 20 345 0.0 0.0 0.00 0.00 0.00 78 1012.1
20260905100536 20 345 0.0 0.0 0.00 0.00 0.00 78 1012.0
20260905100037 20 345 0.0 0.0 0.00 0.00 0.00 78 1012.0
20260905095538 20 345 0.0 0.0 0.00 0.00 0.00 78 1012.0
20260905095037 20 345 0.0 0.0 0.00 0.00 0.00 78 1012.2
20260905094536 20 345 0.0 0.0 0.00 0.00 0.00 78 1012.1
20260905094036 20 345 0.0 0.0 0.00 0.00 0.00 78 1012.1
20260905093534 20 344 0.0 0.0 0.00 0.00 0.00 78 1012.1
20260905093039 20 351 0.0 0.0 0.00 0.00 0.00 77 1012.2
20260905092536 21 351 0.0 1.6 0.00 0.00 0.00 78 1012.2
20260905092032 21 351 0.0 0.0 0.00 0.00 0.00 78 1012.2
20260905091531 21 351 0.0 1.6 0.00 0.00 0.00 78 1012.1
20260905091031 21 351 0.0 1.6 0.00 0.00 0.00 78 1012.1
20260905090530 21 330 0.0 0.0 0.00 0.00 0.00 78 1012.0
20260905090028 21 323 0.0 0.0 0.00 0.00 0.00 78 1012.1
20260905085529 21 323 0.0 0.0 0.00 0.00 0.00 78 1012.2
20260905085029 21 322 0.0 0.0 0.00 0.00 0.00 78 1012.2
20260905084527 21 322 0.0 0.0 0.00 0.00 0.00 78 1012.3
20260905084035 21 323 0.0 0.0 0.00 0.00 0.00 77 1012.3
20260905083525 21 322 0.0 0.0 0.00 0.00 0.00 77 1012.4
20260905083033 21 322 0.0 0.0 0.00 0.00 0.00 77 1012.5
20260905082522 21 322 0.0 0.0 0.00 0.00 0.00 77 1012.7
20260905082026 21 344 0.0 0.0 0.00 0.00 0.00 77 1012.7
20260905081521 21 344 0.0 0.0 0.00 0.00 0.00 77 1012.5
20260905081023 21 344 0.0 0.0 0.00 0.00 0.00 77 1012.6
20260905080519 21 344 0.0 0.0 0.00 0.00 0.00 77 1012.6
20260905080019 21 343 0.0 0.0 0.00 0.00 0.00 77 1012.8
20260905075517 21 344 0.0 0.0 0.00 0.00 0.00 77 1012.9
20260905075015 21 344 0.0 0.0 0.00 0.00 0.00 77 1013.0
20260905074516 21 344 0.0 0.0 0.00 0.00 0.00 77 1012.9
20260905074015 21 344 0.0 0.0 0.00 0.00 0.00 77 1013.0
20260905073514 21 344 0.0 0.0 0.00 0.00 0.00 77 1013.1
20260905073015 21 344 0.0 0.0 0.00 0.00 0.00 77 1013.1
20260905072513 21 344 0.0 0.0 0.00 0.00 0.00 77 1013.0
20260905072011 21 344 0.0 0.0 0.00 0.00 0.00 77 1013.0
20260905071510 21 344 0.0 0.0 0.00 0.00 0.00 77 1013.0
20260905071011 21 343 0.0 0.0 0.00 0.00 0.00 76 1013.2
20260905070508 21 344 0.0 0.0 0.00 0.00 0.00 76 1013.1
20260905070013 21 342 0.0 1.6 0.00 0.00 0.00 76 1013.3
20260905065514 21 342 0.0 1.6 0.00 0.00 0.00 76 1013.3
20260905065013 21 342 0.0 1.6 0.00 0.00 0.00 76 1013.3
20260905064512 21 334 0.0 0.0 0.00 0.00 0.00 76 1013.4
20260905064012 21 334 0.0 0.0 0.00 0.00 0.00 75 1013.4
20260905063510 22 334 0.0 0.0 0.00 0.00 0.00 75 1013.4
20260905063007 22 334 0.0 0.0 0.00 0.00 0.00 74 1013.3
20260905062505 22 334 0.0 0.0 0.00 0.00 0.00 74 1013.4
20260905062004 22 334 0.0 3.2 0.00 0.00 0.00 74 1013.5
20260905061504 22 334 0.0 3.2 0.00 0.00 0.00 74 1013.6
20260905061002 22 334 0.0 3.2 0.00 0.00 0.00 72 1013.8
20260905060601 22 359 0.0 0.0 0.00 0.00 0.00 71 1013.8
20260905060100 22 359 0.0 0.0 0.00 0.00 0.00 70 1014.0
20260905055053 22 359 0.0 0.0 0.00 0.00 0.00 69 1014.1
20260905054554 22 359 0.0 0.0 0.00 0.00 0.00 68 1014.0
20260905054051 22 359 0.0 0.0 0.00 0.00 0.00 67 1014.0
20260905053551 22 359 0.0 0.0 0.00 0.00 0.00 67 1014.1
20260905053049 22 42 0.0 0.0 0.00 0.00 0.00 66 1014.2
20260905052549 22 42 0.0 0.0 0.00 0.00 0.00 66 1014.3
20260905052048 22 42 0.0 0.0 0.00 0.00 0.00 66 1014.2
20260905051547 22 42 0.0 0.0 0.00 0.00 0.00 65 1014.2
20260905051045 22 42 0.0 0.0 0.00 0.00 0.00 66 1014.0
20260905050545 22 42 0.0 0.0 0.00 0.00 0.00 66 1014.0
20260905050046 23 42 0.0 0.0 0.00 0.00 0.00 65 1014.1
20260905045042 23 42 0.0 0.0 0.00 0.00 0.00 65 1014.1
20260905044542 22 42 0.0 0.0 0.00 0.00 0.00 65 1014.2